Location: De Greiden
(52.9496°N, 5.9137°E)
Time: 01:06:30
(UTC+00:00)

Cosmos 990 Rocket - Pass Details

Date: 24 January 2021
Orbit: 748 x 768 km, 74.0° (Epoch: 26 February)

Event Time Altitude Azimuth Distance (km) Brightness Sun altitude
Rises 18:32:42 0° 206° (SSW) 3,212 7.6 -21.7°
Reaches altitude 10° 18:35:03 10° 207° (SSW) 2,287 6.8 -22.0°
Maximum altitude 18:40:15 83° 296° (WNW) 769 3.9 -22.8°
Enters shadow 18:42:50 31° 22° (NNE) 1,316 5.0 -23.2°
